owner,sensor,date,latitude,longitude,vertical_datum,sea_water_practical_salinity,qcFlag 
DISL,ioos:station:DISL:MHPA:1,2013-03-01T00:00:00Z,30.6671,-87.9365,3.535,0.05,1111122 
DISL,ioos:station:DISL:MHPA:1,2013-03-01T00:30:00Z,30.6671,-87.9365,3.457,0.05,1111122 
DISL,ioos:station:DISL:MHPA:1,2013-03-01T01:00:00Z,30.6671,-87.9365,3.391,0.05,1111122 
DISL,ioos:station:DISL:MHPA:1,2013-03-01T01:30:00Z,30.6671,-87.9365,3.332,0.05,1111122 
DISL,ioos:station:DISL:MHPA:1,2013-03-01T02:00:00Z,30.6671,-87.9365,3.276,0.05,1111122 
DISL,ioos:station:DISL:MHPA:1,2013-03-01T02:30:00Z,30.6671,-87.9365,3.236,0.05,1111122 
DISL,ioos:station:DISL:MHPA:1,2013-03-01T03:00:00Z,30.6671,-87.9365,3.201,0.05,1111122 
DISL,ioos:station:DISL:MHPA:1,2013-03-01T03:30:00Z,30.6671,-87.9365,3.166,0.05,1111122 
DISL,ioos:station:DISL:MHPA:1,2013-03-01T04:00:00Z,30.6671,-87.9365,3.135,0.05,1111122 
DISL,ioos:station:DISL:MHPA:1,2013-03-01T04:30:00Z,30.6671,-87.9365,3.121,0.05,1111122 
DISL,ioos:station:DISL:MHPA:1,2013-03-01T05:00:00Z,30.6671,-87.9365,3.105,0.05,1111122 
DISL,ioos:station:DISL:MHPA:1,2013-03-01T05:30:00Z,30.6671,-87.9365,3.08,0.05,1111122 
DISL,ioos:station:DISL:MHPA:1,2013-03-01T06:00:00Z,30.6671,-87.9365,3.051,0.05,1111122 
DISL,ioos:station:DISL:MHPA:1,2013-03-01T06:30:00Z,30.6671,-87.9365,3.029,0.05,1111122 
DISL,ioos:station:DISL:MHPA:1,2013-03-01T07:00:00Z,30.6671,-87.9365,3.023,0.05,1111122 
DISL,ioos:station:DISL:MHPA:1,2013-03-01T07:30:00Z,30.6671,-87.9365,3.024,0.05,1111122 
DISL,ioos:station:DISL:MHPA:1,2013-03-01T08:00:00Z,30.6671,-87.9365,3.021,0.05,1111122 
DISL,ioos:station:DISL:MHPA:1,2013-03-01T08:30:00Z,30.6671,-87.9365,3.024,0.05,1111122 
DISL,ioos:station:DISL:MHPA:1,2013-03-01T09:00:00Z,30.6671,-87.9365,3.054,0.05,1111122 
DISL,ioos:station:DISL:MHPA:1,2013-03-01T09:30:00Z,30.6671,-87.9365,3.095,0.05,1111122 
DISL,ioos:station:DISL:MHPA:1,2013-03-01T10:00:00Z,30.6671,-87.9365,3.109,0.05,1111122 
DISL,ioos:station:DISL:MHPA:1,2013-03-01T10:30:00Z,30.6671,-87.9365,3.11,0.05,1111122 
DISL,ioos:station:DISL:MHPA:1,2013-03-01T11:00:00Z,30.6671,-87.9365,3.117,0.05,1111122 
DISL,ioos:station:DISL:MHPA:1,2013-03-01T11:30:00Z,30.6671,-87.9365,3.12,0.05,1111122 
DISL,ioos:station:DISL:MHPA:1,2013-03-01T12:00:00Z,30.6671,-87.9365,3.116,0.05,1111122 
DISL,ioos:station:DISL:MHPA:1,2013-03-01T12:30:00Z,30.6671,-87.9365,3.12,0.05,1111122 
DISL,ioos:station:DISL:MHPA:1,2013-03-01T13:00:00Z,30.6671,-87.9365,3.137,0.05,1111122 
DISL,ioos:station:DISL:MHPA:1,2013-03-01T13:30:00Z,30.6671,-87.9365,3.16,0.05,1111122 
DISL,ioos:station:DISL:MHPA:1,2013-03-01T14:00:00Z,30.6671,-87.9365,3.188,0.05,1111122 
DISL,ioos:station:DISL:MHPA:1,2013-03-01T14:30:00Z,30.6671,-87.9365,3.204,0.05,1111122 
DISL,ioos:station:DISL:MHPA:1,2013-03-01T15:00:00Z,30.6671,-87.9365,3.228,0.05,1111122 
DISL,ioos:station:DISL:MHPA:1,2013-03-01T15:30:00Z,30.6671,-87.9365,3.256,0.05,1111122 
DISL,ioos:station:DISL:MHPA:1,2013-03-01T16:00:00Z,30.6671,-87.9365,3.295,0.05,1111122 
DISL,ioos:station:DISL:MHPA:1,2013-03-01T16:30:00Z,30.6671,-87.9365,3.339,0.05,1111122 
DISL,ioos:station:DISL:MHPA:1,2013-03-01T17:00:00Z,30.6671,-87.9365,3.399,0.05,1111122 
DISL,ioos:station:DISL:MHPA:1,2013-03-01T17:30:00Z,30.6671,-87.9365,3.452,0.05,1111122 
DISL,ioos:station:DISL:MHPA:1,2013-03-01T18:00:00Z,30.6671,-87.9365,3.534,0.05,1111122 
DISL,ioos:station:DISL:MHPA:1,2013-03-01T18:30:00Z,30.6671,-87.9365,3.594,0.05,1111122 
DISL,ioos:station:DISL:MHPA:1,2013-03-01T19:00:00Z,30.6671,-87.9365,3.66,0.05,1111122 
DISL,ioos:station:DISL:MHPA:1,2013-03-01T19:30:00Z,30.6671,-87.9365,3.802,0.05,1111122 
DISL,ioos:station:DISL:MHPA:1,2013-03-01T20:00:00Z,30.6671,-87.9365,3.949,0.05,1111122 
DISL,ioos:station:DISL:MHPA:1,2013-03-01T20:30:00Z,30.6671,-87.9365,4.059,0.05,1111122 
DISL,ioos:station:DISL:MHPA:1,2013-03-01T21:00:00Z,30.6671,-87.9365,4.067,0.05,1111122 
DISL,ioos:station:DISL:MHPA:1,2013-03-01T21:30:00Z,30.6671,-87.9365,4.065,0.05,1111122 
DISL,ioos:station:DISL:MHPA:1,2013-03-01T22:00:00Z,30.6671,-87.9365,4.084,0.05,1111122 
DISL,ioos:station:DISL:MHPA:1,2013-03-01T22:30:00Z,30.6671,-87.9365,4.032,0.05,1111122 
DISL,ioos:station:DISL:MHPA:1,2013-03-01T23:00:00Z,30.6671,-87.9365,3.981,0.05,1111122 
DISL,ioos:station:DISL:MHPA:1,2013-03-01T23:30:00Z,30.6671,-87.9365,3.883,0.05,1111122 
DISL,ioos:station:DISL:MHPA:1,2013-03-02T00:00:00Z,30.6671,-87.9365,3.783,0.05,1111122 
DISL,ioos:station:DISL:MHPA:1,2013-03-02T00:30:00Z,30.6671,-87.9365,3.691,0.05,1111122 
DISL,ioos:station:DISL:MHPA:1,2013-03-02T01:00:00Z,30.6671,-87.9365,3.6,0.05,1111122 
DISL,ioos:station:DISL:MHPA:1,2013-03-02T01:30:00Z,30.6671,-87.9365,3.505,0.05,1111122 
DISL,ioos:station:DISL:MHPA:1,2013-03-02T02:00:00Z,30.6671,-87.9365,3.425,0.05,1111122 
DISL,ioos:station:DISL:MHPA:1,2013-03-02T02:30:00Z,30.6671,-87.9365,3.338,0.05,1111122 
DISL,ioos:station:DISL:MHPA:1,2013-03-02T03:00:00Z,30.6671,-87.9365,3.252,0.05,1111122 
DISL,ioos:station:DISL:MHPA:1,2013-03-02T03:30:00Z,30.6671,-87.9365,3.161,0.05,1111122 
DISL,ioos:station:DISL:MHPA:1,2013-03-02T04:00:00Z,30.6671,-87.9365,3.069,0.05,1111122 
DISL,ioos:station:DISL:MHPA:1,2013-03-02T04:30:00Z,30.6671,-87.9365,2.987,0.05,1111122 
DISL,ioos:station:DISL:MHPA:1,2013-03-02T05:00:00Z,30.6671,-87.9365,2.926,0.05,1111122 
DISL,ioos:station:DISL:MHPA:1,2013-03-02T05:30:00Z,30.6671,-87.9365,2.885,0.05,1111122 
DISL,ioos:station:DISL:MHPA:1,2013-03-02T06:00:00Z,30.6671,-87.9365,2.858,0.05,1111122 
DISL,ioos:station:DISL:MHPA:1,2013-03-02T06:30:00Z,30.6671,-87.9365,2.837,0.05,1111122 
DISL,ioos:station:DISL:MHPA:1,2013-03-02T07:00:00Z,30.6671,-87.9365,2.821,0.05,1111122 
DISL,ioos:station:DISL:MHPA:1,2013-03-02T07:30:00Z,30.6671,-87.9365,2.821,0.05,1111122 
DISL,ioos:station:DISL:MHPA:1,2013-03-02T08:00:00Z,30.6671,-87.9365,2.836,0.05,1111122 
DISL,ioos:station:DISL:MHPA:1,2013-03-02T08:30:00Z,30.6671,-87.9365,2.852,0.05,1111122 
DISL,ioos:station:DISL:MHPA:1,2013-03-02T09:00:00Z,30.6671,-87.9365,2.855,0.05,1111122 
DISL,ioos:station:DISL:MHPA:1,2013-03-02T09:30:00Z,30.6671,-87.9365,2.844,0.05,1111122 
DISL,ioos:station:DISL:MHPA:1,2013-03-02T10:00:00Z,30.6671,-87.9365,2.832,0.05,1111122 
DISL,ioos:station:DISL:MHPA:1,2013-03-02T10:30:00Z,30.6671,-87.9365,2.825,0.06,1111122 
DISL,ioos:station:DISL:MHPA:1,2013-03-02T11:00:00Z,30.6671,-87.9365,2.837,0.05,1111122 
DISL,ioos:station:DISL:MHPA:1,2013-03-02T11:30:00Z,30.6671,-87.9365,2.863,0.05,1111122 
DISL,ioos:station:DISL:MHPA:1,2013-03-02T12:00:00Z,30.6671,-87.9365,2.907,0.05,1111122 
DISL,ioos:station:DISL:MHPA:1,2013-03-02T12:30:00Z,30.6671,-87.9365,2.97,0.05,1111122 
DISL,ioos:station:DISL:MHPA:1,2013-03-02T13:00:00Z,30.6671,-87.9365,3.021,0.05,1111122 
DISL,ioos:station:DISL:MHPA:1,2013-03-02T13:30:00Z,30.6671,-87.9365,3.055,0.05,1111122 
DISL,ioos:station:DISL:MHPA:1,2013-03-02T14:00:00Z,30.6671,-87.9365,3.085,0.05,1111122 
DISL,ioos:station:DISL:MHPA:1,2013-03-02T14:30:00Z,30.6671,-87.9365,3.113,0.05,1111122 
DISL,ioos:station:DISL:MHPA:1,2013-03-02T15:00:00Z,30.6671,-87.9365,3.132,0.05,1111122 
DISL,ioos:station:DISL:MHPA:1,2013-03-02T15:30:00Z,30.6671,-87.9365,3.151,0.05,1111122 
DISL,ioos:station:DISL:MHPA:1,2013-03-02T16:00:00Z,30.6671,-87.9365,3.175,0.05,1111122 
DISL,ioos:station:DISL:MHPA:1,2013-03-02T16:30:00Z,30.6671,-87.9365,3.212,0.05,1111122 
DISL,ioos:station:DISL:MHPA:1,2013-03-02T17:00:00Z,30.6671,-87.9365,3.276,0.05,1111122 
DISL,ioos:station:DISL:MHPA:1,2013-03-02T17:30:00Z,30.6671,-87.9365,3.335,0.05,1111122 
DISL,ioos:station:DISL:MHPA:1,2013-03-02T18:00:00Z,30.6671,-87.9365,3.373,0.05,1111122 
DISL,ioos:station:DISL:MHPA:1,2013-03-02T18:30:00Z,30.6671,-87.9365,3.435,0.05,1111122 
DISL,ioos:station:DISL:MHPA:1,2013-03-02T19:00:00Z,30.6671,-87.9365,3.504,0.05,1111122 
DISL,ioos:station:DISL:MHPA:1,2013-03-02T19:30:00Z,30.6671,-87.9365,3.535,0.05,1111122 
DISL,ioos:station:DISL:MHPA:1,2013-03-02T20:00:00Z,30.6671,-87.9365,3.528,0.05,1111122 
DISL,ioos:station:DISL:MHPA:1,2013-03-02T20:30:00Z,30.6671,-87.9365,3.528,0.05,1111122 
DISL,ioos:station:DISL:MHPA:1,2013-03-02T21:00:00Z,30.6671,-87.9365,3.545,0.05,1111122 
DISL,ioos:station:DISL:MHPA:1,2013-03-02T21:30:00Z,30.6671,-87.9365,3.535,0.05,1111122 
DISL,ioos:station:DISL:MHPA:1,2013-03-02T22:00:00Z,30.6671,-87.9365,3.505,0.05,1111122 
DISL,ioos:station:DISL:MHPA:1,2013-03-02T22:30:00Z,30.6671,-87.9365,3.503,0.05,1111122 
DISL,ioos:station:DISL:MHPA:1,2013-03-02T23:00:00Z,30.6671,-87.9365,3.479,0.05,1111122 
DISL,ioos:station:DISL:MHPA:1,2013-03-02T23:30:00Z,30.6671,-87.9365,3.428,0.05,1111122 
DISL,ioos:station:DISL:MHPA:1,2013-03-03T00:00:00Z,30.6671,-87.9365,3.371,0.05,1111122 
DISL,ioos:station:DISL:MHPA:1,2013-03-03T00:30:00Z,30.6671,-87.9365,3.317,0.05,1111122 
DISL,ioos:station:DISL:MHPA:1,2013-03-03T01:00:00Z,30.6671,-87.9365,3.239,0.05,1111122 
DISL,ioos:station:DISL:MHPA:1,2013-03-03T01:30:00Z,30.6671,-87.9365,3.172,0.05,1111122 
DISL,ioos:station:DISL:MHPA:1,2013-03-03T02:00:00Z,30.6671,-87.9365,3.113,0.05,1111122 
DISL,ioos:station:DISL:MHPA:1,2013-03-03T02:30:00Z,30.6671,-87.9365,3.062,0.05,1111122 
DISL,ioos:station:DISL:MHPA:1,2013-03-03T03:00:00Z,30.6671,-87.9365,3.021,0.05,1111122 
DISL,ioos:station:DISL:MHPA:1,2013-03-03T03:30:00Z,30.6671,-87.9365,2.972,0.05,1111122 
DISL,ioos:station:DISL:MHPA:1,2013-03-03T04:00:00Z,30.6671,-87.9365,2.932,0.05,1111122 
DISL,ioos:station:DISL:MHPA:1,2013-03-03T04:30:00Z,30.6671,-87.9365,2.902,0.05,1111122 
DISL,ioos:station:DISL:MHPA:1,2013-03-03T05:00:00Z,30.6671,-87.9365,2.872,0.05,1111122 
DISL,ioos:station:DISL:MHPA:1,2013-03-03T05:30:00Z,30.6671,-87.9365,2.839,0.05,1111122 
DISL,ioos:station:DISL:MHPA:1,2013-03-03T06:00:00Z,30.6671,-87.9365,2.813,0.05,1111122 
DISL,ioos:station:DISL:MHPA:1,2013-03-03T06:30:00Z,30.6671,-87.9365,2.784,0.05,1111122 
DISL,ioos:station:DISL:MHPA:1,2013-03-03T07:00:00Z,30.6671,-87.9365,2.76,0.05,1111122 
DISL,ioos:station:DISL:MHPA:1,2013-03-03T07:30:00Z,30.6671,-87.9365,2.748,0.05,1111122 
DISL,ioos:station:DISL:MHPA:1,2013-03-03T08:00:00Z,30.6671,-87.9365,2.738,0.05,1111122 
DISL,ioos:station:DISL:MHPA:1,2013-03-03T08:30:00Z,30.6671,-87.9365,2.726,0.05,1111122 
DISL,ioos:station:DISL:MHPA:1,2013-03-03T09:00:00Z,30.6671,-87.9365,2.717,0.05,1111122 
DISL,ioos:station:DISL:MHPA:1,2013-03-03T09:30:00Z,30.6671,-87.9365,2.711,0.05,1111122 
DISL,ioos:station:DISL:MHPA:1,2013-03-03T10:00:00Z,30.6671,-87.9365,2.707,0.05,1111122 
DISL,ioos:station:DISL:MHPA:1,2013-03-03T10:30:00Z,30.6671,-87.9365,2.702,0.05,1111122 
DISL,ioos:station:DISL:MHPA:1,2013-03-03T11:00:00Z,30.6671,-87.9365,2.697,0.05,1111122 
DISL,ioos:station:DISL:MHPA:1,2013-03-03T11:30:00Z,30.6671,-87.9365,2.702,0.05,1111122 
DISL,ioos:station:DISL:MHPA:1,2013-03-03T12:00:00Z,30.6671,-87.9365,2.707,0.05,1111122 
DISL,ioos:station:DISL:MHPA:1,2013-03-03T12:30:00Z,30.6671,-87.9365,2.717,0.05,1111122 
DISL,ioos:station:DISL:MHPA:1,2013-03-03T13:00:00Z,30.6671,-87.9365,2.727,0.05,1111122 
DISL,ioos:station:DISL:MHPA:1,2013-03-03T13:30:00Z,30.6671,-87.9365,2.74,0.05,1111122 
DISL,ioos:station:DISL:MHPA:1,2013-03-03T14:00:00Z,30.6671,-87.9365,2.747,0.05,1111122 
DISL,ioos:station:DISL:MHPA:1,2013-03-03T14:30:00Z,30.6671,-87.9365,2.752,0.05,1111122 
DISL,ioos:station:DISL:MHPA:1,2013-03-03T15:00:00Z,30.6671,-87.9365,2.759,0.05,1111122 
DISL,ioos:station:DISL:MHPA:1,2013-03-03T15:30:00Z,30.6671,-87.9365,2.777,0.05,1111122 
DISL,ioos:station:DISL:MHPA:1,2013-03-03T16:00:00Z,30.6671,-87.9365,2.811,0.05,1111122 
DISL,ioos:station:DISL:MHPA:1,2013-03-03T16:30:00Z,30.6671,-87.9365,2.86,0.05,1111122 
DISL,ioos:station:DISL:MHPA:1,2013-03-03T17:00:00Z,30.6671,-87.9365,2.921,0.05,1111122 
DISL,ioos:station:DISL:MHPA:1,2013-03-03T17:30:00Z,30.6671,-87.9365,2.983,0.05,1111122 
DISL,ioos:station:DISL:MHPA:1,2013-03-03T18:00:00Z,30.6671,-87.9365,3.056,0.05,1111122 
DISL,ioos:station:DISL:MHPA:1,2013-03-03T18:30:00Z,30.6671,-87.9365,3.147,0.05,1111122 
DISL,ioos:station:DISL:MHPA:1,2013-03-03T19:00:00Z,30.6671,-87.9365,3.264,0.05,1111122 
DISL,ioos:station:DISL:MHPA:1,2013-03-03T19:30:00Z,30.6671,-87.9365,3.388,0.05,1111122 
DISL,ioos:station:DISL:MHPA:1,2013-03-03T20:00:00Z,30.6671,-87.9365,3.498,0.05,1111122 
DISL,ioos:station:DISL:MHPA:1,2013-03-03T20:30:00Z,30.6671,-87.9365,3.61,0.05,1111122 
DISL,ioos:station:DISL:MHPA:1,2013-03-03T21:00:00Z,30.6671,-87.9365,3.692,0.05,1111122 
DISL,ioos:station:DISL:MHPA:1,2013-03-03T21:30:00Z,30.6671,-87.9365,3.761,0.05,1111122 
DISL,ioos:station:DISL:MHPA:1,2013-03-03T22:00:00Z,30.6671,-87.9365,3.812,0.05,1111122 
DISL,ioos:station:DISL:MHPA:1,2013-03-03T22:30:00Z,30.6671,-87.9365,3.831,0.05,1111122 
DISL,ioos:station:DISL:MHPA:1,2013-03-03T23:00:00Z,30.6671,-87.9365,3.87,0.05,1111122 
DISL,ioos:station:DISL:MHPA:1,2013-03-03T23:30:00Z,30.6671,-87.9365,3.897,0.05,1111122 
DISL,ioos:station:DISL:MHPA:1,2013-03-04T00:00:00Z,30.6671,-87.9365,3.897,0.05,1111122 
DISL,ioos:station:DISL:MHPA:1,2013-03-04T00:30:00Z,30.6671,-87.9365,3.855,0.05,1111122 
DISL,ioos:station:DISL:MHPA:1,2013-03-04T01:00:00Z,30.6671,-87.9365,3.767,0.05,1111122 
DISL,ioos:station:DISL:MHPA:1,2013-03-04T01:30:00Z,30.6671,-87.9365,3.674,0.05,1111122 
DISL,ioos:station:DISL:MHPA:1,2013-03-04T02:00:00Z,30.6671,-87.9365,3.597,0.05,1111122 
DISL,ioos:station:DISL:MHPA:1,2013-03-04T02:30:00Z,30.6671,-87.9365,3.522,0.05,1111122 
DISL,ioos:station:DISL:MHPA:1,2013-03-04T03:00:00Z,30.6671,-87.9365,3.459,0.05,1111122 
DISL,ioos:station:DISL:MHPA:1,2013-03-04T03:30:00Z,30.6671,-87.9365,3.41,0.05,1111122 
DISL,ioos:station:DISL:MHPA:1,2013-03-04T04:00:00Z,30.6671,-87.9365,3.347,0.05,1111122 
DISL,ioos:station:DISL:MHPA:1,2013-03-04T04:30:00Z,30.6671,-87.9365,3.291,0.05,1111122 
DISL,ioos:station:DISL:MHPA:1,2013-03-04T05:00:00Z,30.6671,-87.9365,3.247,0.05,1111122 
DISL,ioos:station:DISL:MHPA:1,2013-03-04T05:30:00Z,30.6671,-87.9365,3.212,0.05,1111122 
DISL,ioos:station:DISL:MHPA:1,2013-03-04T06:00:00Z,30.6671,-87.9365,3.167,0.05,1111122 
DISL,ioos:station:DISL:MHPA:1,2013-03-04T06:30:00Z,30.6671,-87.9365,3.122,0.05,1111122 
DISL,ioos:station:DISL:MHPA:1,2013-03-04T07:00:00Z,30.6671,-87.9365,3.08,0.05,1111122 
DISL,ioos:station:DISL:MHPA:1,2013-03-04T07:30:00Z,30.6671,-87.9365,3.037,0.05,1111122 
DISL,ioos:station:DISL:MHPA:1,2013-03-04T08:00:00Z,30.6671,-87.9365,2.999,0.05,1111122 
DISL,ioos:station:DISL:MHPA:1,2013-03-04T08:30:00Z,30.6671,-87.9365,2.957,0.05,1111122 
DISL,ioos:station:DISL:MHPA:1,2013-03-04T09:00:00Z,30.6671,-87.9365,2.923,0.05,1111122 
DISL,ioos:station:DISL:MHPA:1,2013-03-04T09:30:00Z,30.6671,-87.9365,2.898,0.05,1111122 
DISL,ioos:station:DISL:MHPA:1,2013-03-04T10:00:00Z,30.6671,-87.9365,2.883,0.05,1111122 
DISL,ioos:station:DISL:MHPA:1,2013-03-04T10:30:00Z,30.6671,-87.9365,2.876,0.05,1111122 
DISL,ioos:station:DISL:MHPA:1,2013-03-04T11:00:00Z,30.6671,-87.9365,2.876,0.05,1111122 
DISL,ioos:station:DISL:MHPA:1,2013-03-04T11:30:00Z,30.6671,-87.9365,2.881,0.05,1111122 
DISL,ioos:station:DISL:MHPA:1,2013-03-04T12:00:00Z,30.6671,-87.9365,2.891,0.05,1111122 
DISL,ioos:station:DISL:MHPA:1,2013-03-04T12:30:00Z,30.6671,-87.9365,2.907,0.05,1111122 
DISL,ioos:station:DISL:MHPA:1,2013-03-04T13:00:00Z,30.6671,-87.9365,2.928,0.05,1111122 
DISL,ioos:station:DISL:MHPA:1,2013-03-04T13:30:00Z,30.6671,-87.9365,2.953,0.05,1111122 
DISL,ioos:station:DISL:MHPA:1,2013-03-04T14:00:00Z,30.6671,-87.9365,2.992,0.05,1111122 
DISL,ioos:station:DISL:MHPA:1,2013-03-04T14:30:00Z,30.6671,-87.9365,3.048,0.05,1111122 
DISL,ioos:station:DISL:MHPA:1,2013-03-04T15:00:00Z,30.6671,-87.9365,3.124,0.05,1111122 
DISL,ioos:station:DISL:MHPA:1,2013-03-04T15:30:00Z,30.6671,-87.9365,3.218,0.05,1111122 
DISL,ioos:station:DISL:MHPA:1,2013-03-04T16:00:00Z,30.6671,-87.9365,3.344,0.05,1111122 
DISL,ioos:station:DISL:MHPA:1,2013-03-04T16:30:00Z,30.6671,-87.9365,3.527,0.05,1111122 
DISL,ioos:station:DISL:MHPA:1,2013-03-04T17:00:00Z,30.6671,-87.9365,3.694,0.05,1111122 
DISL,ioos:station:DISL:MHPA:1,2013-03-04T17:30:00Z,30.6671,-87.9365,3.831,0.05,1111122 
DISL,ioos:station:DISL:MHPA:1,2013-03-04T18:00:00Z,30.6671,-87.9365,3.945,0.05,1111122 
DISL,ioos:station:DISL:MHPA:1,2013-03-04T18:30:00Z,30.6671,-87.9365,4.063,0.05,1111122 
DISL,ioos:station:DISL:MHPA:1,2013-03-04T19:00:00Z,30.6671,-87.9365,4.177,0.05,1111122 
DISL,ioos:station:DISL:MHPA:1,2013-03-04T19:30:00Z,30.6671,-87.9365,4.288,0.05,1111122 
DISL,ioos:station:DISL:MHPA:1,2013-03-04T20:00:00Z,30.6671,-87.9365,4.36,0.05,1111122 
DISL,ioos:station:DISL:MHPA:1,2013-03-04T20:30:00Z,30.6671,-87.9365,4.492,0.05,1111122 
DISL,ioos:station:DISL:MHPA:1,2013-03-04T21:00:00Z,30.6671,-87.9365,4.603,0.05,1111122 
DISL,ioos:station:DISL:MHPA:1,2013-03-04T21:30:00Z,30.6671,-87.9365,4.678,0.05,1111122 
DISL,ioos:station:DISL:MHPA:1,2013-03-04T22:00:00Z,30.6671,-87.9365,4.718,0.05,1111122 
DISL,ioos:station:DISL:MHPA:1,2013-03-04T22:30:00Z,30.6671,-87.9365,4.731,0.05,1111122 
DISL,ioos:station:DISL:MHPA:1,2013-03-04T23:00:00Z,30.6671,-87.9365,4.68,0.05,1111122 
DISL,ioos:station:DISL:MHPA:1,2013-03-04T23:30:00Z,30.6671,-87.9365,4.63,0.05,1111122 
DISL,ioos:station:DISL:MHPA:1,2013-03-05T00:00:00Z,30.6671,-87.9365,4.535,0.05,1111122 
DISL,ioos:station:DISL:MHPA:1,2013-03-05T00:30:00Z,30.6671,-87.9365,4.434,0.05,1111122 
DISL,ioos:station:DISL:MHPA:1,2013-03-05T01:00:00Z,30.6671,-87.9365,4.344,0.05,1111122 
DISL,ioos:station:DISL:MHPA:1,2013-03-05T01:30:00Z,30.6671,-87.9365,4.245,0.05,1111122 
DISL,ioos:station:DISL:MHPA:1,2013-03-05T02:00:00Z,30.6671,-87.9365,4.145,0.05,1111122 
DISL,ioos:station:DISL:MHPA:1,2013-03-05T02:30:00Z,30.6671,-87.9365,4.06,0.05,1111122 
DISL,ioos:station:DISL:MHPA:1,2013-03-05T03:00:00Z,30.6671,-87.9365,3.975,0.05,1111122 
DISL,ioos:station:DISL:MHPA:1,2013-03-05T03:30:00Z,30.6671,-87.9365,3.883,0.05,1111122 
DISL,ioos:station:DISL:MHPA:1,2013-03-05T04:00:00Z,30.6671,-87.9365,3.817,0.05,1111122 
DISL,ioos:station:DISL:MHPA:1,2013-03-05T04:30:00Z,30.6671,-87.9365,3.748,0.05,1111122 
DISL,ioos:station:DISL:MHPA:1,2013-03-05T05:00:00Z,30.6671,-87.9365,3.678,0.05,1111122 
DISL,ioos:station:DISL:MHPA:1,2013-03-05T05:30:00Z,30.6671,-87.9365,3.615,0.05,1111122 
DISL,ioos:station:DISL:MHPA:1,2013-03-05T06:00:00Z,30.6671,-87.9365,3.559,0.05,1111122 
DISL,ioos:station:DISL:MHPA:1,2013-03-05T06:30:00Z,30.6671,-87.9365,3.513,0.05,1111122 
DISL,ioos:station:DISL:MHPA:1,2013-03-05T07:00:00Z,30.6671,-87.9365,3.467,0.05,1111122 
DISL,ioos:station:DISL:MHPA:1,2013-03-05T07:30:00Z,30.6671,-87.9365,3.421,0.05,1111122 
DISL,ioos:station:DISL:MHPA:1,2013-03-05T08:00:00Z,30.6671,-87.9365,3.372,0.05,1111122 
DISL,ioos:station:DISL:MHPA:1,2013-03-05T08:30:00Z,30.6671,-87.9365,3.328,0.05,1111122 
DISL,ioos:station:DISL:MHPA:1,2013-03-05T09:00:00Z,30.6671,-87.9365,3.288,0.05,1111122 
DISL,ioos:station:DISL:MHPA:1,2013-03-05T09:30:00Z,30.6671,-87.9365,3.251,0.05,1111122 
DISL,ioos:station:DISL:MHPA:1,2013-03-05T10:00:00Z,30.6671,-87.9365,3.213,0.05,1111122 
DISL,ioos:station:DISL:MHPA:1,2013-03-05T10:30:00Z,30.6671,-87.9365,3.182,0.06,1111122 
DISL,ioos:station:DISL:MHPA:1,2013-03-05T11:00:00Z,30.6671,-87.9365,3.158,0.06,1111122 
DISL,ioos:station:DISL:MHPA:1,2013-03-05T11:30:00Z,30.6671,-87.9365,3.159,0.06,1111122 
DISL,ioos:station:DISL:MHPA:1,2013-03-05T12:00:00Z,30.6671,-87.9365,3.162,0.06,1111122 
DISL,ioos:station:DISL:MHPA:1,2013-03-05T12:30:00Z,30.6671,-87.9365,3.161,0.06,1111122 
DISL,ioos:station:DISL:MHPA:1,2013-03-05T13:00:00Z,30.6671,-87.9365,3.168,0.06,1111122 
DISL,ioos:station:DISL:MHPA:1,2013-03-05T13:30:00Z,30.6671,-87.9365,3.186,0.06,1111122 
DISL,ioos:station:DISL:MHPA:1,2013-03-05T14:00:00Z,30.6671,-87.9365,3.21,0.06,1111122 
DISL,ioos:station:DISL:MHPA:1,2013-03-05T14:30:00Z,30.6671,-87.9365,3.241,0.06,1111122 
DISL,ioos:station:DISL:MHPA:1,2013-03-05T15:00:00Z,30.6671,-87.9365,3.29,0.05,1111122 
DISL,ioos:station:DISL:MHPA:1,2013-03-05T15:30:00Z,30.6671,-87.9365,3.371,0.05,1111122 
DISL,ioos:station:DISL:MHPA:1,2013-03-05T16:00:00Z,30.6671,-87.9365,3.483,0.05,1111122 
DISL,ioos:station:DISL:MHPA:1,2013-03-05T16:30:00Z,30.6671,-87.9365,3.641,0.05,1111122 
DISL,ioos:station:DISL:MHPA:1,2013-03-05T17:00:00Z,30.6671,-87.9365,3.858,0.05,1111122 
DISL,ioos:station:DISL:MHPA:1,2013-03-05T17:30:00Z,30.6671,-87.9365,4.095,0.05,1111122 
DISL,ioos:station:DISL:MHPA:1,2013-03-05T18:00:00Z,30.6671,-87.9365,4.218,0.05,1111122 
DISL,ioos:station:DISL:MHPA:1,2013-03-05T18:30:00Z,30.6671,-87.9365,4.337,0.05,1111122 
DISL,ioos:station:DISL:MHPA:1,2013-03-05T19:00:00Z,30.6671,-87.9365,4.476,0.05,1111122 
DISL,ioos:station:DISL:MHPA:1,2013-03-05T19:30:00Z,30.6671,-87.9365,4.65,0.05,1111122 
DISL,ioos:station:DISL:MHPA:1,2013-03-05T20:00:00Z,30.6671,-87.9365,4.795,0.05,1111122 
DISL,ioos:station:DISL:MHPA:1,2013-03-05T20:30:00Z,30.6671,-87.9365,4.775,0.05,1111122 
DISL,ioos:station:DISL:MHPA:1,2013-03-05T21:00:00Z,30.6671,-87.9365,4.912,0.05,1111122 
DISL,ioos:station:DISL:MHPA:1,2013-03-05T21:30:00Z,30.6671,-87.9365,5.109,0.05,1111122 
DISL,ioos:station:DISL:MHPA:1,2013-03-05T22:00:00Z,30.6671,-87.9365,5.232,0.05,1111122 
DISL,ioos:station:DISL:MHPA:1,2013-03-05T22:30:00Z,30.6671,-87.9365,5.303,0.05,1111122 
DISL,ioos:station:DISL:MHPA:1,2013-03-05T23:00:00Z,30.6671,-87.9365,5.271,0.05,1111122 
DISL,ioos:station:DISL:MHPA:1,2013-03-05T23:30:00Z,30.6671,-87.9365,5.194,0.05,1111122 
DISL,ioos:station:DISL:MHPA:1,2013-03-06T00:00:00Z,30.6671,-87.9365,5.073,0.05,1111122 
DISL,ioos:station:DISL:MHPA:1,2013-03-06T00:30:00Z,30.6671,-87.9365,5.0,0.05,1111122 
DISL,ioos:station:DISL:MHPA:1,2013-03-06T01:00:00Z,30.6671,-87.9365,4.908,0.05,1111122 
DISL,ioos:station:DISL:MHPA:1,2013-03-06T01:30:00Z,30.6671,-87.9365,4.814,0.05,1111122 
DISL,ioos:station:DISL:MHPA:1,2013-03-06T02:00:00Z,30.6671,-87.9365,4.682,0.05,1111122 
DISL,ioos:station:DISL:MHPA:1,2013-03-06T02:30:00Z,30.6671,-87.9365,4.518,0.05,1111122 
DISL,ioos:station:DISL:MHPA:1,2013-03-06T03:00:00Z,30.6671,-87.9365,4.353,0.05,1111122 
DISL,ioos:station:DISL:MHPA:1,2013-03-06T03:30:00Z,30.6671,-87.9365,4.187,0.05,1111122 
DISL,ioos:station:DISL:MHPA:1,2013-03-06T04:00:00Z,30.6671,-87.9365,4.061,0.05,1111122 
DISL,ioos:station:DISL:MHPA:1,2013-03-06T04:30:00Z,30.6671,-87.9365,3.968,0.05,1111122 
DISL,ioos:station:DISL:MHPA:1,2013-03-06T05:00:00Z,30.6671,-87.9365,3.873,0.05,1111122 
DISL,ioos:station:DISL:MHPA:1,2013-03-06T05:30:00Z,30.6671,-87.9365,3.773,0.05,1111122 
DISL,ioos:station:DISL:MHPA:1,2013-03-06T06:00:00Z,30.6671,-87.9365,3.708,0.05,1111122 
DISL,ioos:station:DISL:MHPA:1,2013-03-06T06:30:00Z,30.6671,-87.9365,3.653,0.05,1111122 
DISL,ioos:station:DISL:MHPA:1,2013-03-06T07:00:00Z,30.6671,-87.9365,3.594,0.05,1111122 
DISL,ioos:station:DISL:MHPA:1,2013-03-06T07:30:00Z,30.6671,-87.9365,3.521,0.05,1111122 
DISL,ioos:station:DISL:MHPA:1,2013-03-06T08:00:00Z,30.6671,-87.9365,3.439,0.05,1111122 
DISL,ioos:station:DISL:MHPA:1,2013-03-06T08:30:00Z,30.6671,-87.9365,3.363,0.05,1111122 
DISL,ioos:station:DISL:MHPA:1,2013-03-06T09:00:00Z,30.6671,-87.9365,3.268,0.05,1111122 
DISL,ioos:station:DISL:MHPA:1,2013-03-06T09:30:00Z,30.6671,-87.9365,3.186,0.05,1111122 
DISL,ioos:station:DISL:MHPA:1,2013-03-06T10:00:00Z,30.6671,-87.9365,3.118,0.05,1111122 
DISL,ioos:station:DISL:MHPA:1,2013-03-06T10:30:00Z,30.6671,-87.9365,3.052,0.05,1111122 
DISL,ioos:station:DISL:MHPA:1,2013-03-06T11:00:00Z,30.6671,-87.9365,2.994,0.05,1111122 
DISL,ioos:station:DISL:MHPA:1,2013-03-06T11:30:00Z,30.6671,-87.9365,2.949,0.05,1111122 
DISL,ioos:station:DISL:MHPA:1,2013-03-06T12:00:00Z,30.6671,-87.9365,2.921,0.05,1111122 
DISL,ioos:station:DISL:MHPA:1,2013-03-06T12:30:00Z,30.6671,-87.9365,2.899,0.05,1111122 
DISL,ioos:station:DISL:MHPA:1,2013-03-06T13:00:00Z,30.6671,-87.9365,2.875,0.05,1111122 
DISL,ioos:station:DISL:MHPA:1,2013-03-06T13:30:00Z,30.6671,-87.9365,2.845,0.05,1111122 
DISL,ioos:station:DISL:MHPA:1,2013-03-06T14:00:00Z,30.6671,-87.9365,2.814,0.05,1111122 
DISL,ioos:station:DISL:MHPA:1,2013-03-06T14:30:00Z,30.6671,-87.9365,2.79,0.05,1111122 
DISL,ioos:station:DISL:MHPA:1,2013-03-06T15:00:00Z,30.6671,-87.9365,2.772,0.05,1111122 
DISL,ioos:station:DISL:MHPA:1,2013-03-06T15:30:00Z,30.6671,-87.9365,2.754,0.05,1111122 